Iron Mountain, MI

10:20 PM CST on January 19, 2018 (GMT -0600)
Ford

Weather History for KIMT - September, 2013

Change the Weather History Date:

Monday, September 30, 2013

  Actual Average Record
Temperature  
Mean Temperature 57 °F -  
Max Temperature 71 °F 62 °F 80 °F (1950)
Min Temperature 44 °F 40 °F 23 °F (1939)
Degree Days  
Heating Degree Days 8    
Growing Degree Days 7 (Base 50)    
Moisture  
Dew Point 45 °F    
Average Humidity 67    
Maximum Humidity 93    
Minimum Humidity 38    
Precipitation  
Precipitation 0.00 in - - ()
Sea Level Pressure  
Sea Level Pressure 29.86 in    
Wind  
Wind Speed 8 mph (SSE)    
Max Wind Speed 20 mph    
Max Gust Speed 29 mph    
Visibility 10 miles    
Events      
Averages and records for this station are not official NWS values.
T = Trace of Precipitation, MM = Missing Value Source: NWS Daily Summary

Daily Weather History Graph

Daily Weather History Graph

Search for Another Location

Airport or City:

Trip Planner

Search our weather history database for the weather conditions in past years. The results will help you decide how hot, cold, wet, or windy it might be!

Date:

Astronomy

Sep. 30, 2013 Rise Set
Actual Time 6:49 AM CDT 6:33 PM CDT
Civil Twilight 6:20 AM CDT 7:03 PM CDT
Nautical Twilight 5:45 AM CDT 7:38 PM CDT
Astronomical Twilight 5:10 AM CDT 8:13 PM CDT
Moon 2:14 AM CDT (9/30) 4:14 PM CDT (9/30)
Length of Visible Light 12h 43m
Length of Day
11h 44m
Waning Crescent, 19% of the Moon is Illuminated
Sep 30
Waning Crescent
Oct 4
New
Oct 11
First Quarter
Oct 18
Full
Oct 26
Last Quarter

Hourly Weather History & Observations

Time (CDT) Temp. Windchill Dew Point Humidity Pressure Visibility Wind Dir Wind Speed Gust Speed Precip Events Conditions
12:54 AM 46.9 °F - 44.1 °F 90% 29.96 in 10.0 mi SE 3.5 mph - N/A   Clear
1:54 AM 48.9 °F - 44.1 °F 83% 29.96 in 10.0 mi SE 5.8 mph - N/A   Clear
2:54 AM 48.0 °F - 44.1 °F 86% 29.94 in 10.0 mi SE 4.6 mph - N/A   Clear
3:54 AM 46.9 °F - 43.0 °F 86% 29.94 in 10.0 mi SE 5.8 mph - N/A   Clear
4:54 AM 46.0 °F 42.5 °F 43.0 °F 89% 29.94 in 10.0 mi SE 6.9 mph - N/A   Clear
5:54 AM 45.0 °F 41.8 °F 43.0 °F 93% 29.93 in 10.0 mi SE 5.8 mph - N/A   Clear
6:54 AM 44.1 °F 41.5 °F 42.1 °F 93% 29.93 in 10.0 mi SE 4.6 mph - N/A   Clear
7:54 AM 46.9 °F - 43.0 °F 86% 29.92 in 10.0 mi SE 5.8 mph - N/A   Clear
8:54 AM 48.9 °F - 43.0 °F 80% 29.91 in 10.0 mi SSE 8.1 mph - N/A   Clear
9:54 AM 57.9 °F - 46.0 °F 65% 29.89 in 10.0 mi SSE 8.1 mph - N/A   Clear
10:54 AM 64.9 °F - 44.1 °F 47% 29.87 in 10.0 mi SSW 12.7 mph 24.2 mph N/A   Clear
11:54 AM 68.0 °F - 43.0 °F 40% 29.86 in 10.0 mi South 18.4 mph 26.5 mph N/A   Clear
12:54 PM 69.1 °F - 43.0 °F 39% 29.84 in 10.0 mi South 16.1 mph 25.3 mph N/A   Clear
1:54 PM 70.0 °F - 43.0 °F 38% 29.81 in 10.0 mi South 16.1 mph 26.5 mph N/A   Clear
2:54 PM 70.0 °F - 44.1 °F 39% 29.78 in 10.0 mi South 18.4 mph 28.8 mph N/A   Clear
3:54 PM 70.0 °F - 44.1 °F 39% 29.77 in 10.0 mi SSW 17.3 mph 27.6 mph N/A   Clear
4:54 PM 69.1 °F - 44.1 °F 40% 29.77 in 10.0 mi South 19.6 mph 27.6 mph N/A   Clear
5:54 PM 64.9 °F - 46.0 °F 50% 29.78 in 10.0 mi SSE 8.1 mph - N/A   Clear
6:54 PM 60.1 °F - 46.9 °F 62% 29.78 in 10.0 mi SE 4.6 mph - N/A   Clear
7:54 PM 57.0 °F - 46.9 °F 69% 29.79 in 10.0 mi SE 4.6 mph - N/A   Clear
8:54 PM 55.9 °F - 46.9 °F 72% 29.80 in 10.0 mi SE 5.8 mph - N/A   Clear
9:54 PM 55.0 °F - 46.9 °F 74% 29.80 in 10.0 mi SE 5.8 mph - N/A   Clear
10:54 PM 55.0 °F - 46.9 °F 74% 29.79 in 10.0 mi SE 4.6 mph - N/A   Clear
11:54 PM 54.0 °F - 48.0 °F 80% 29.78 in 10.0 mi SE 5.8 mph - N/A   Clear